Flag for Germany Weather past 2 weeks in Merseburg, Saxony-Anhalt, Germany

Now
68 °F

Passing clouds.


Feels Like: 68 °F
Forecast: 64 / 80 °F
Wind: 5 mph from Northeast

Location: Leipzig-Schkeuditz

Current Time: Jul 6, 2015 at 1:24:20 AM

Latest Report: Jul 6, 2015 at 12:50 AM


Visibility: N/A

Pressure: 29.95 "Hg

Humidity: 88%

Dew point: 64 °F

Location of MerseburgLocation

Historic Weather in Merseburg — Graph

°F

Merseburg temperature yesterday

Maximum temperature yesterday: 99 °F (at 3:20 PM)
Minimum temperature yesterday: 68 °F (at 10:20 PM)
Average temperature yesterday: 85 °F

Past Weeks' High & Low Weather Summary

 TemperatureHumidityPressure
High99 °F (Jul 4, 2:50 PM)100% (Jun 22, 5:20 AM)30.27 "Hg (Jun 22, 5:20 AM)
Low48 °F (Jun 25, 3:20 AM)21% (Jul 5, 5:20 PM)29.62 "Hg (Jun 23, 1:50 AM)
Average68 °F62%30.08 "Hg
* Reported Jun 21 12:20 AM — Jul 6 12:20 AM, Merseburg, Weather by CustomWeather, © 2015

Note: Actual official high and low records may vary slightly from our data, if they occured in-between our weather recording intervals... More about our weather records

Advertising

Merseburg weather history for previous 24 hours

 ConditionsComfort  
Time TempWeatherWind HumidityBarometerVisibility
12:20 AM
Mon, Jul 6
70 °FThundershowers. Partly cloudy.12 mph83%29.95 "HgN/A
11:50 PM
Sun, Jul 5
68 °FThunderstorms. Partly cloudy.13 mph94%29.95 "Hg5 mi
11:20 PM68 °FStrong thunderstorms. Partly cloudy.21 mph94%29.98 "Hg4 mi
10:50 PM68 °FThunderstorms. Passing clouds.12 mph83%29.89 "Hg4 mi
10:20 PM68 °FThunderstorms. Broken clouds.18 mph83%29.89 "Hg5 mi
9:50 PM77 °FThundershowers. Partly sunny.21 mph65%29.95 "HgN/A
9:20 PM81 °FStrong thunderstorms. Broken clouds.14 mph51%29.89 "HgN/A
8:50 PM88 °FPartly sunny.10 mph38%29.86 "HgN/A
8:20 PM90 °FPartly sunny.12 mph38%29.86 "HgN/A
7:50 PM91 °FPartly sunny.12 mph34%29.86 "HgN/A
7:20 PM93 °FScattered clouds.12 mph32%29.89 "HgN/A
6:50 PM95 °FPassing clouds.14 mph32%29.89 "HgN/A
6:20 PM97 °FSunny.8 mph22%29.89 "Hg10 mi
5:50 PM97 °FSunny.8 mph23%29.92 "Hg10 mi
5:20 PM99 °FPassing clouds.5 mph21%29.92 "HgN/A
4:50 PM97 °FPassing clouds.6 mph23%29.95 "HgN/A
4:20 PM97 °FSunny.3 mph23%29.95 "Hg10 mi
3:50 PM97 °FPassing clouds.3 mph25%29.95 "HgN/A
3:20 PM99 °FPassing clouds.5 mph25%29.98 "HgN/A
2:50 PM97 °FPassing clouds.6 mph25%29.98 "HgN/A
2:20 PM97 °FPassing clouds.7 mph25%29.98 "HgN/A
1:50 PM95 °FPassing clouds.5 mph28%30.01 "HgN/A
1:20 PM93 °FPassing clouds.5 mph32%30.01 "HgN/A
12:50 PM93 °FSunny.3 mph32%30.01 "Hg10 mi
12:20 PM91 °FPassing clouds.5 mph34%30.04 "HgN/A
11:50 AM91 °FSunny.3 mph34%30.04 "Hg10 mi
11:20 AM91 °FSunny.1 mph34%30.04 "Hg10 mi
10:50 AM88 °FSunny.3 mph38%30.04 "Hg10 mi
10:20 AM86 °FSunny.1 mph43%30.04 "Hg10 mi
9:50 AM86 °FSunny.2 mph46%30.07 "Hg10 mi
9:20 AM84 °FSunny.1 mph45%30.07 "Hg10 mi
8:50 AM82 °FSunny.3 mph51%30.07 "Hg10 mi
8:20 AM81 °FSunny.7 mph54%30.07 "Hg10 mi
7:50 AM79 °FSunny.8 mph61%30.07 "Hg10 mi
7:20 AM79 °FSunny.3 mph58%30.07 "Hg10 mi
6:50 AM77 °FSunny.6 mph57%30.07 "Hg10 mi
6:20 AM75 °FSunny.3 mph61%30.07 "Hg10 mi
5:20 AM73 °FClear.5 mph65%30.07 "Hg10 mi
4:50 AM73 °FClear.6 mph65%30.07 "Hg10 mi
4:20 AM73 °FClear.6 mph65%30.07 "Hg10 mi
3:50 AM75 °FPassing clouds.9 mph61%30.07 "HgN/A
3:20 AM75 °FPassing clouds.12 mph61%30.07 "HgN/A
2:50 AM77 °FPassing clouds.9 mph57%30.07 "HgN/A
2:20 AM79 °FPassing clouds.13 mph54%30.07 "HgN/A
1:50 AM82 °FPartly cloudy.8 mph55%30.07 "HgN/A
1:20 AM82 °FThunderstorms. Passing clouds.5 mph51%30.07 "HgN/A
Weather by CustomWeather, © 2015

See weather overviewHow to use our weather pages